Flag for Switzerland Weather past 2 weeks in Meyrin, Geneva, Switzerland

Now
37 °F

Scattered clouds.


Feels Like: 37 °F
Forecast: 36 / 44 °F
Wind: 1 mph from North

Location: Geneva Cointrin Airport

Current Time: Mar 3, 2015 at 9:00:48 AM

Latest Report: Mar 3, 2015 at 8:20 AM


Visibility: N/A

Pressure: 30.24 "Hg

Humidity: 93%

Dew point: 36 °F

Location of MeyrinLocation

Historic Weather in Meyrin — Graph

°F

Meyrin temperature yesterday

Maximum temperature yesterday: 54 °F (at 11:20 AM)
Minimum temperature yesterday: 45 °F (at 7:20 PM)
Average temperature yesterday: 49 °F

Past Weeks' High & Low Weather Summary

 TemperatureHumidityPressure
High54 °F (Feb 20, 1:50 PM)100% (Feb 16, 7:20 PM)30.63 "Hg (Feb 16, 7:20 PM)
Low27 °F (Feb 20, 4:20 AM)26% (Feb 20, 2:20 PM)29.59 "Hg (Feb 21, 7:20 AM)
Average39 °F81%30.06 "Hg
* Reported Feb 16 7:20 AM — Mar 3 7:50 AM, Meyrin, Weather by CustomWeather, © 2015

Note: Actual official high and low records may vary slightly from our data, if they occured in-between our weather recording intervals... More about our weather records

Advertising

Meyrin weather history for previous 24 hours

 ConditionsComfort  
Time TempWeatherWind HumidityBarometerVisibility
7:50 AM
Tue, Mar 3
36 °FScattered clouds.3 mph100%30.21 "HgN/A
7:20 AM36 °FScattered clouds.1 mph93%30.21 "HgN/A
6:50 AM36 °FPassing clouds.3 mph100%30.21 "HgN/A
6:20 AM36 °FPassing clouds.2 mph100%30.21 "HgN/A
5:50 AM36 °FPassing clouds.3 mph100%30.21 "HgN/A
5:20 AM37 °FPassing clouds.6 mph93%30.21 "HgN/A
4:50 AM37 °FPassing clouds.2 mph93%30.21 "HgN/A
4:20 AM37 °FPartly cloudy.2 mph93%30.21 "HgN/A
3:50 AM37 °FPartly cloudy.1 mph93%30.21 "HgN/A
3:20 AM39 °FPartly cloudy.6 mph87%30.21 "HgN/A
2:50 AM39 °FPassing clouds.5 mph87%30.21 "HgN/A
1:50 AM41 °FPassing clouds.7 mph81%30.24 "HgN/A
1:20 AM43 °FPassing clouds.5 mph81%30.21 "HgN/A
12:50 AM43 °FPassing clouds.7 mph76%30.24 "HgN/A
12:20 AM43 °FPartly cloudy.6 mph76%30.24 "HgN/A
11:50 PM
Mon, Mar 2
45 °FPartly cloudy.5 mph76%30.21 "HgN/A
11:20 PM46 °FPassing clouds.8 mph66%30.21 "HgN/A
10:50 PM45 °FPartly cloudy.7 mph71%30.21 "HgN/A
10:20 PM46 °FPartly cloudy.8 mph66%30.21 "HgN/A
9:50 PM46 °FPartly cloudy.10 mph66%30.18 "HgN/A
9:20 PM46 °FPartly cloudy.9 mph66%30.18 "HgN/A
8:50 PM45 °FPartly cloudy.5 mph71%30.18 "HgN/A
8:20 PM46 °FPassing clouds.3 mph71%30.15 "HgN/A
7:50 PM45 °FPassing clouds.6 mph76%30.12 "HgN/A
7:20 PM45 °FPassing clouds.7 mph76%30.12 "HgN/A
6:50 PM46 °FSprinkles. Partly cloudy.8 mph76%30.09 "HgN/A
6:20 PM48 °FScattered showers. Broken clouds.7 mph71%30.09 "HgN/A
5:50 PM48 °FBroken clouds.9 mph71%30.07 "HgN/A
5:20 PM48 °FScattered showers. Broken clouds.10 mph71%30.07 "HgN/A
4:50 PM50 °FSprinkles. Broken clouds.10 mph62%30.07 "HgN/A
4:20 PM48 °FScattered showers. Broken clouds.7 mph71%30.04 "HgN/A
3:50 PM50 °FSprinkles. Broken clouds.12 mph62%30.04 "HgN/A
3:20 PM54 °FScattered showers. Broken clouds.10 mph54%30.04 "HgN/A
2:50 PM50 °FSprinkles. Partly sunny.16 mph67%30.04 "HgN/A
2:20 PM54 °FBroken clouds.16 mph51%30.04 "HgN/A
1:50 PM52 °FScattered showers. Broken clouds.12 mph58%30.01 "HgN/A
1:20 PM52 °FScattered showers. Broken clouds.12 mph67%30.01 "HgN/A
12:50 PM52 °FSprinkles. Broken clouds.21 mph62%30.01 "HgN/A
12:20 PM54 °FScattered showers. Broken clouds.16 mph58%29.98 "HgN/A
11:50 AM54 °FScattered clouds.15 mph54%29.98 "HgN/A
11:20 AM54 °FScattered clouds.15 mph58%29.98 "HgN/A
10:50 AM52 °FScattered clouds.8 mph67%29.98 "HgN/A
10:20 AM52 °FSprinkles. Broken clouds.14 mph67%29.98 "HgN/A
9:50 AM50 °FScattered showers. Broken clouds.12 mph71%29.95 "HgN/A
9:20 AM50 °FBroken clouds.13 mph76%29.95 "HgN/A
Weather by CustomWeather, © 2015

See weather overviewHow to use our weather pages